Voltar ao catálogo

STARLINK-35021

AtivoComunicaçõesSSO
NORAD 65282·PAYLOAD·🇺🇸 United States

Lançado Aug 22, 2025 de Vandenberg Space Force Base

Loading…

Próximas Passagens (próximas 24 horas)

TLE

AtualizadoSource: CelesTrak SupGP

Época: Sep 14, 2026, 21:31 UTC

1 65282C 25184K   26257.89701389  .00004591  00000+0  14257-3 0  2577
2 65282  97.2837 305.9079 0000990  87.8320 253.4402 15.33426338    19

Acompanhe STARLINK-35021 em tempo real com AllMySat

Download on the App Store